Hourly Weather Roundup
Issued by NWS Central Illinois

Home | Current Version | Previous Version | Text Only | Print | Product List | Glossary On
Versions: 1 2 3 4 5 6 7 8 9 10 11 12 13 14 15 16 17 18 19 20 21 22 23 24 25 26 27 28 29 30 31 32 33 34 35 36 37 38 39 40 41 42 43 44 45 46 47 48 49 50
000
NZUS43 KILX 011610
HWRILX

AREA WEATHER ROUNDUP
NATIONAL WEATHER SERVICE, LINCOLN IL
1100 AM CDT WED JUL 01 2015


CITY           SKY/WX    TMP DP  RH WIND       PRES   REMARKS
BLOOMINGTON    PTSUNNY   69  64  84 SE7       29.96R
CHAMPAIGN      PTSUNNY   70  64  81 SE7       29.94S
DANVILLE       PTSUNNY   68  61  79 E3        29.93S
DECATUR        CLOUDY    73  66  78 VRB3      29.93S HAZE
EFFINGHAM      PTSUNNY   77  66  67 W6        29.95S
FLORA          CLOUDY    76  70  82 SW8       29.94S
GALESBURG      MOSUNNY   70  65  83 N10       29.94S
JACKSONVILLE   MOSUNNY   80  69  69 NW5       29.91F HX  82
LACON          PTSUNNY   67  59  74 E7        29.95R
LAWRENCEVILLE  CLOUDY    76  69  79 SW7       29.94S
LITCHFIELD     CLOUDY    76  66  71 W5        29.94S
$$


CITY           SKY/WX    TMP DP  RH WIND       PRES   REMARKS
LINCOLN        CLOUDY    72  67  84 SE3       29.94S
MACOMB         CLOUDY    73  68  83 CALM      29.95R
MATTOON        PTSUNNY   73  68  84 SE6       29.93R
MT CARMEL AP   LGT RAIN  73  70  88 SW8       29.94S
OLNEY-NOBLE AP CLOUDY    73  70  88 SW3       29.94F
PARIS          CLOUDY    71  66  84 SE5       29.96R
PEORIA         SUNNY     73  63  70 NE9       29.94R
PONTIAC        CLOUDY    68  63  82 E8        29.97R
RANTOUL        PTSUNNY   71  62  74 E6        29.95S
ROBINSON       CLOUDY    75  68  77 S6        29.94S
SPRINGFIELD    PTSUNNY   79  69  71 NW9       29.92S HX  81
TAYLORVILLE    MOSUNNY   75  68  78 W8        29.93S
$$

...REGIONAL REPORTS...


CITY           SKY/WX    TMP DP  RH WIND       PRES   REMARKS
CHICAGO O`HARE CLOUDY    65  54  67 NE6       29.97S
KANKAKEE       CLOUDY    66  58  76 NE7       29.97S
MOLINE         CLOUDY    65  59  81 E9        29.96R
MOUNT STERLING NOT AVBL
MOUNT VERNON   CLOUDY    73  66  78 W5        29.96S
PITTSFIELD     MOSUNNY   79  66  65 SW6       29.92F HX  81
QUINCY         MOSUNNY   79  66  64 W6        29.91S HX  81
ROCKFORD       CLOUDY    67  55  65 CALM      29.99S
$$


CITY           SKY/WX    TMP DP  RH WIND       PRES   REMARKS
BURLINGTON     SUNNY     75  66  73 NE9       29.92S
CEDAR RAPIDS   MOSUNNY   69  61  75 E9        29.94F
DES MOINES     CLOUDY    72  62  71 NE5       29.94R
KIRKSVILLE     MOSUNNY   77  67  71 W3        29.95R
OTTUMWA        MOSUNNY   73  65  75 E9        29.90F
ST LOUIS       CLOUDY    78  68  71 W9        29.93F HX  80
$$


CITY           SKY/WX    TMP DP  RH WIND       PRES   REMARKS
TERRE HAUTE    PTSUNNY   72  66  81 CALM      29.95R
EVANSVILLE     LGT RAIN  75  71  87 SW8       29.96R FOG
INDIANAPOLIS   PTSUNNY   72  59  63 VRB3      29.94R
LAFAYETTE      MOSUNNY   69  61  75 VRB3      29.95R
MADISON        MOSUNNY   65  47  52 VRB6      29.98S
MILWAUKEE      MOSUNNY   61  49  64 E7        29.98R
$$





USA.gov is the U.S. government's official web portal to all federal, state and local government web resources and services.